sat.trackr.live / text

‹ back to catalog

STARLINK-32118

NORAD 60280 · 2024-132C

PAYLOAD ACTIVE UNKNOWN

§ Identity

Operator
Country
US
Launch date
2024-07-28
Launch site
AFETR
Launch vehicle
Mass (kg)
RCS (m²)

Purposes: comms

External: N2YO · Heavens-Above · Gunter

§ Orbital elements

Epoch: 2026-05-25T01:11:12.074784Z

Period
94.11 min
Inclination
53.1590°
Eccentricity
0.0001222
Mean motion
15.30194976 rev/d
Perigee alt
474.4 km
Apogee alt
476.1 km
Semi-major
6,853.4 km
B*
6.8256e-5
RAAN
57.5892°
Arg perigee
92.5187°
Mean anomaly
267.5953°
Rev number
10,325

§ Raw data

STARLINK-321181 60280U 24132C   26145.04944531  .00001663  00000+0  68256-4 0  99922 60280  53.1590  57.5892 0001222  92.5187 267.5953 15.30194976103259

JSON: /api/v1/satellites/60280 · /tle

For live sub-satellite position, see the globe view (requires WebGL).

§ Visibility from observer

Set your observer location to see the next 7 days of passes ≥ 10°. The values pass through the URL so the page stays shareable.

No JS? Fill the form by hand. The geolocation button needs JavaScript.